Regional Weather Roundup
Issued by NWS

Home | Current Version | Previous Version | Graphics & Text | Print | Product List | Glossary On
Versions: 1 2 3 4 5 6 7 8 9 10 11 12 13 14 15 16 17 18 19 20 21 22 23 24 25 26 27 28 29 30 31 32 33 34 35 36 37 38 39 40 41 42 43 44 45 46 47 48 49 50
000
ASUS43 KLOT 230408
RWRIL

ILLINOIS REGIONAL WEATHER ROUNDUP
NATIONAL WEATHER SERVICE CHICAGO/ROMEOVILLE IL
1100 PM CDT FRI MAY 22 2015

NOTE: "FAIR" INDICATES FEW OR NO CLOUDS BELOW 12,000 FEET WITH NO
SIGNIFICANT WEATHER AND/OR OBSTRUCTIONS TO VISIBILITY.

* THESE STATIONS ARE NOT UNDER NWS QUALITY CONTROL. THEY ALSO MAY NOT
  REPORT WEATHER SUCH AS PRECIPITATION OR FOG.

ILZ001-002-007-009-015-016-024-230500-
NORTHWEST ILLINOIS

CITY           SKY/WX    TMP DP  RH WIND       PRES   REMARKS
MOLINE         CLOUDY    59  48  67 SE3       30.22S
STERLING*      CLOUDY    61  36  39 E9        30.26R
SAVANNA*       MOCLDY    61  40  46 SE8       30.24S
$$

ILZ003-004-008-010-011-017-018-230500-
NORTH CENTRAL ILLINOIS

CITY           SKY/WX    TMP DP  RH WIND       PRES   REMARKS
ROCKFORD       CLOUDY    56  33  42 E6        30.30R
FREEPORT*      CLOUDY    55  39  54 SE8       30.27S
ROCHELLE*      CLOUDY    56  35  43 SE9       30.28R
DE KALB*       CLOUDY    50  35  55 E6        30.29R
PERU*          CLOUDY    61  37  40 E5        30.27S
$$

ILZ005-006-012>014-019>023-230500-
NORTHEAST ILLINOIS

CITY           SKY/WX    TMP DP  RH WIND       PRES   REMARKS
CHICAGO-OHARE  CLOUDY    52  32  46 E7        30.29R
CHICAGO-MIDWAY MOCLDY    56  35  45 E10       30.29S
AURORA         CLOUDY    53  32  44 E8        30.29R
LANSING*       MOCLDY    53  35  50 CALM      30.29S
JOLIET*        CLOUDY    55  37  52 E3        30.28S
WAUKEGAN       CLOUDY    46  32  58 CALM      30.29S
DUPAGE AIRPORT CLOUDY    53  31  42 E5        30.28S
KANKAKEE*      CLOUDY    55  42  62 CALM      30.29R
WHEELING       CLOUDY    48  32  53 S5        30.32R
MORRIS*        CLOUDY    56  34  43 E3        30.25R
ROMEOVILLE*    CLOUDY    52  35  52 E6        30.28S
NORTHERLY ISL    N/A     51  39  63 E5          N/A
$$

LMZ740>746-230500-
SOUTHERN LAKE MICHIGAN

STATION/POSITION SKY/WX   TEMP    WIND        PRES    VSBY  WAVE
                          AIR SEA DIR/SP/G                  HT/PER
                          (F)     (DEG/KT/KT) (MB)    (MI)  (FT/S)
SOUTHERN BUOY              43 38  120/  8/  8 1026.5R         0
HARRISON CRIB              50      70/ 10/ 12   N/A
BURNHAM HARBOR             51      70/  3/  8   N/A
CALUMET HARBOR             53      60/  6/  8   N/A
BURNS HARBOR               56      90/  7/  8 1026.1R
MICHIGAN CITY              55      50/  7/  7   N/A
MICHIGAN CITY 6N           53 51  120/  4/  4   N/A           2/ 3
ST. JOSEPH                 55 53  110/  6/  6   N/A           1/ 3
$$

ILZ025>027-034>036-040-047-049-050-058-095>099-230500-
WEST-CENTRAL ILLINOIS

CITY           SKY/WX    TMP DP  RH WIND       PRES   REMARKS
QUINCY         MOCLDY    62  54  74 S3        30.24F
GALESBURG*     MOCLDY    62  48  60 N3        30.24S
MACOMB*        CLOUDY    63  53  71 W5        30.27R
JACKSONVILLE*  CLOUDY    66  55  68 CALM      30.26R
PITTSFIELD*    CLOUDY    62  53  71 SW3       30.27R
$$

ILZ028>032-037-038-041>044-048-051>054-059>061-230500-
CENTRAL ILLINOIS

CITY           SKY/WX    TMP DP  RH WIND       PRES   REMARKS
PONTIAC        CLOUDY    62  40  45 E7        30.28R
BLOOMINGTON    MOCLDY    63  42  46 E9        30.27R
DECATUR        MOCLDY    66  47  50 SW3       30.25S
PEORIA         CLOUDY    66  43  43 CALM      30.24S
LACON*         MOCLDY    64  37  36 SE8       30.25R
LINCOLN*       CLOUDY    69  47  45 CALM      30.23S
SPRINGFIELD    CLOUDY    67  52  58 W7        30.25S
TAYLORVILLE    CLOUDY    63  54  72 SW5       30.26S
$$

ILZ033-039-045-046-055>057-062-063-230500-
EAST-CENTRAL ILLINOIS

CITY           SKY/WX    TMP DP  RH WIND       PRES   REMARKS
CHAMPAIGN      CLOUDY    65  43  44 NE8       30.27R
DANVILLE*      CLOUDY    63  38  40 E7        30.25R
RANTOUL*       CLOUDY    65  39  38 E6        30.27R
MATTOON        CLOUDY    65  49  56 SW5       30.25S
PARIS*         CLOUDY    65  51  60 SW5       30.27S
$$

ILZ079-100>102-230500-
SOUTHWEST ILLINOIS

CITY           SKY/WX    TMP DP  RH WIND       PRES   REMARKS
ALTON          MOCLDY    61  59  93 CALM      30.26F
BELLEVILLE     MOCLDY    61  57  85 CALM      30.25S
CAHOKIA*       MOCLDY    65  54  67 CALM      30.26R
SPARTA*        CLOUDY    63  53  70 SE3       30.28S
$$

ILZ064>066-069>071-074>076-080>082-084>086-088>090-092>094-230500-
SOUTH-CENTRAL ILLINOIS

CITY           SKY/WX    TMP DP  RH WIND       PRES   REMARKS
CARBONDALE     CLOUDY    60  55  83 CALM      30.28S
CAIRO*         MOCLDY    60  57  90 CALM      30.27F
EFFINGHAM*     CLOUDY    61  52  72 CALM      30.28S
MARION         CLOUDY    61  57  88 CALM      30.29S
MT. VERNON     PTCLDY    54  48  82 CALM      30.28F
CENTRALIA*     MOCLDY    58  53  81 CALM      30.27F
SALEM*         MOCLDY    64  55  72 S3        30.27F
METROPOLIS*    MOCLDY    60  59  99 CALM      30.27S
$$

ILZ067-068-072-073-078-083-087-091-230500-
SOUTHEAST ILLINOIS

CITY           SKY/WX    TMP DP  RH WIND       PRES   REMARKS
LAWRENCEVILLE  MOCLDY    62  54  74 S6        30.28R
FLORA*         MOCLDY    62  54  73 SW5       30.28S
FAIRFIELD*     PTCLDY    59  56  87 CALM      30.27S
HARRISBURG*    MOCLDY    59  58  94 CALM      30.30S
ROBINSON*      MOCLDY    63  52  67 CALM      30.28R
CARMI*         MOCLDY    61  53  75 CALM      30.28S
$$

ABBREVIATIONS USED IN REMARKS
   TC - TEMPERATURE IN CELSIUS
  WCI - WIND CHILL INDEX
   HX - HEAT INDEX
  VSB - VISIBILITY
$$




USA.gov is the U.S. government's official web portal to all federal, state and local government web resources and services.